Regional Weather Roundup
Issued by NWS Sioux Falls, SD

Home | Current Version | Previous Version | Graphics & Text | Print | Product List | Glossary Off
Versions: 1 2 3 4 5 6 7 8 9 10 11 12 13 14 15 16 17 18 19 20 21 22 23 24 25 26 27 28 29 30 31 32 33 34 35 36 37 38 39 40 41 42 43 44 45 46 47 48 49 50

000
ASUS43 KFSD 210510
RWRFSD

WEATHER ROUNDUP FOR SE SOUTH DAKOTA/SW MINNESOTA/NW IOWA
NATIONAL WEATHER SERVICE SIOUX FALLS SD
1200 AM CDT SUN SEP 21 2014

NOTE: "FAIR" INDICATES FEW OR NO CLOUDS BELOW 12,000 FEET WITH NO
SIGNIFICANT WEATHER AND OR OBSTRUCTIONS TO VISIBILITY.


SDZ038>040-050-052>070-210600-
SOUTHEAST SOUTH DAKOTA

CITY           SKY/WX    TMP DP  RH WIND       PRES   REMARKS
CHAMBERLAIN    CLEAR     53  40  63 NW6       30.14R
HURON          CLEAR     54  41  61 NW9       30.07R
MADISON        FAIR      54  46  76 NW8       30.05S
MITCHELL       CLEAR     56  43  61 W8        30.08R
SIOUX FALLS    CLEAR     57  47  69 W9        30.04S
WINNER         FAIR      55  39  54 NW9       30.16R
YANKTON        CLEAR     55  46  71 W6        30.09R
$$

MNZ071-072-080-081-089-090-097-098-210600-
SOUTHWEST MINNESOTA

CITY           SKY/WX    TMP DP  RH WIND       PRES   REMARKS
FAIRMONT       CLEAR     57  48  72 W12       29.95S
JACKSON        CLEAR     59  46  63 W10       29.98S
LUVERNE        CLEAR     54  45  71 W5        30.03S
MARSHALL       CLEAR     57  43  58 W13       29.96S
MONTEVIDEO     CLEAR     57  48  72 NW9       29.94S
PIPESTONE      CLEAR     55  45  67 NW9       30.02S
REDWOOD FALLS  CLEAR     58  49  72 W15       29.92S
TRACY          CLEAR     58  47  67 W6        29.98S
WINDOM         CLEAR     54  48  82 W8        29.97S
WORTHINGTON    CLEAR     55  45  67 W10       30.01S
$$

IAZ001>003-012>014-020>022-031-032-NEZ013-014-SDZ071-210600-
NORTHWEST IOWA

CITY           SKY/WX    TMP DP  RH WIND       PRES   REMARKS
CHEROKEE       CLEAR     57  53  86 W3        30.04R
DENISON        CLEAR     57  54  88 CALM      30.04R
ESTHERVILLE    CLEAR     55  52  89 W9        29.98S
LE MARS          N/A     54  52  94 CALM      30.06R
ORANGE CITY    CLEAR     54  48  82 NW5       30.05R
SHELDON        CLEAR     52  48  87 W7        30.02S
SIOUX CITY     CLEAR     58  52  80 W6        30.06R
SPENCER        CLEAR     54  49  83 W12       30.00S
$$

ABBREVIATIONS USED IN REMARKS
   TC - TEMPERATURE IN CELSIUS
  WCI - WIND CHILL INDEX
   HX - HEAT INDEX
  VSB - VISIBILITY



USA.gov is the U.S. government's official web portal to all federal, state and local government web resources and services.